Location: El Águila
(10.4167°N, 66.7167°W)
Time: 21:45:51
(UTC+00:00)

SWIFT - Pass Details

Date: 08 April 2023
Orbit: 527 x 541 km, 20.6° (Epoch: 28 May)

Event Time Altitude Azimuth Distance (km) Brightness Sun altitude
Rises 23:28:25 0° 296° (WNW) 2,640 7.4 -13.2°
Reaches altitude 10° 23:31:12 10° 315° (NW) 1,751 5.8 -13.9°
Maximum altitude 23:34:07 19° 1° (N) 1,288 4.3 -14.6°
Enters shadow 23:36:46 11° 44° (NE) 1,677 4.5 -15.2°
